EZY2712 EDDN-LIML

Flight info

Callsign EZY2712
Flight time N/A
Altitude 30000
Route BOLSI1C/10 BOLSI Y166 DKB N869 TEDGO DCT SONOM/N0410F310 DCT GERSA N850 SOSON DCT ODINA
Aircraft A20N/M-SDE2E3FGHIRWXY/LB1

Departure

Time 2026-04-28 12:46
Airport Nuremberg Airport (EDDN)

Arrival

Time N/A
Airport Milano Linate Airport (LIML)
Time Latitude Longitude Altitude Speed Heading
2026-04-28 12:21 49.49514 11.07790 1029 ft 0 kts 188°
2026-04-28 12:34 49.49530 11.07794 1054 ft 3 kts 185°
2026-04-28 12:34 49.49547 11.07796 1032 ft 3 kts 185°
2026-04-28 12:35 49.49564 11.07798 1032 ft 2 kts 162°
2026-04-28 12:35 49.49576 11.07782 1033 ft 1 kts 96°
2026-04-28 12:35 49.49576 11.07780 1033 ft 0 kts 97°
2026-04-28 12:37 49.49577 11.07792 1033 ft 2 kts 77°
2026-04-28 12:38 49.49586 11.07787 1033 ft 2 kts 306°
2026-04-28 12:38 49.49595 11.07689 1033 ft 14 kts 277°
2026-04-28 12:38 49.49608 11.07542 1032 ft 14 kts 278°
2026-04-28 12:38 49.49623 11.07388 1030 ft 15 kts 278°
2026-04-28 12:39 49.49631 11.07309 1029 ft 4 kts 278°
2026-04-28 12:39 49.49635 11.07263 1030 ft 5 kts 278°
2026-04-28 12:39 49.49649 11.07233 1026 ft 2 kts 329°
2026-04-28 12:39 49.49663 11.07229 1030 ft 2 kts 354°
2026-04-28 12:40 49.49684 11.07232 1027 ft 4 kts
2026-04-28 12:40 49.49714 11.07225 1028 ft 5 kts 336°
2026-04-28 12:40 49.49737 11.07182 1028 ft 7 kts 291°
2026-04-28 12:40 49.49749 11.07090 1025 ft 11 kts 279°
2026-04-28 12:41 49.49760 11.06965 1020 ft 13 kts 277°
2026-04-28 12:41 49.49773 11.06829 1022 ft 12 kts 282°
2026-04-28 12:41 49.49783 11.06745 1021 ft 9 kts 280°
2026-04-28 12:41 49.49792 11.06641 1020 ft 10 kts 278°
2026-04-28 12:42 49.49802 11.06531 1021 ft 10 kts 279°
2026-04-28 12:42 49.49813 11.06431 1022 ft 9 kts 279°
2026-04-28 12:42 49.49822 11.06332 1023 ft 10 kts 278°
2026-04-28 12:42 49.49833 11.06225 1022 ft 11 kts 278°
2026-04-28 12:43 49.49845 11.06110 1023 ft 11 kts 278°
2026-04-28 12:43 49.49863 11.06011 1021 ft 8 kts 305°
2026-04-28 12:43 49.49912 11.05966 1025 ft 9 kts 337°
2026-04-28 12:43 49.49979 11.05935 1022 ft 3 kts 358°
2026-04-28 12:44 49.49980 11.05935 1022 ft 0 kts 359°
2026-04-28 12:44 49.49987 11.05935 1022 ft 2 kts
2026-04-28 12:44 49.50012 11.05943 1022 ft 5 kts 16°
2026-04-28 12:44 49.50043 11.05975 1022 ft 5 kts 54°
2026-04-28 12:45 49.50047 11.06003 1022 ft 0 kts 96°
2026-04-28 12:45 49.50046 11.06017 1022 ft 0 kts 97°
2026-04-28 12:45 49.50035 11.06131 1024 ft 45 kts 99°
2026-04-28 12:45 49.49936 11.07141 1032 ft 144 kts 97°
2026-04-28 12:46 49.49777 11.08865 1641 ft 174 kts 96°
2026-04-28 12:46 49.49595 11.10685 2981 ft 172 kts 96°
2026-04-28 12:46 49.49402 11.12639 3812 ft 206 kts 97°
2026-04-28 12:46 49.49170 11.15031 4524 ft 239 kts 97°
2026-04-28 12:47 49.48908 11.17647 5565 ft 254 kts 97°
2026-04-28 12:47 49.48567 11.20318 6408 ft 256 kts 106°
2026-04-28 12:47 49.47735 11.22757 6923 ft 262 kts 128°
2026-04-28 12:47 49.46257 11.24440 7106 ft 271 kts 155°
2026-04-28 12:48 49.44387 11.24928 7130 ft 277 kts 178°
2026-04-28 12:48 49.42451 11.24758 7133 ft 280 kts 182°
2026-04-28 12:48 49.40511 11.24481 7130 ft 279 kts 183°
2026-04-28 12:48 49.38580 11.24210 7133 ft 278 kts 184°
2026-04-28 12:49 49.36659 11.23949 7131 ft 277 kts 183°
2026-04-28 12:49 49.34758 11.23423 7130 ft 279 kts 195°
2026-04-28 12:49 49.32982 11.22236 7130 ft 280 kts 210°
2026-04-28 12:49 49.31467 11.20344 7132 ft 283 kts 226°
2026-04-28 12:50 49.30341 11.17868 7132 ft 285 kts 242°
2026-04-28 12:50 49.29652 11.15003 7132 ft 288 kts 254°
2026-04-28 12:50 49.29149 11.12019 7133 ft 289 kts 256°
2026-04-28 12:50 49.28674 11.09026 7128 ft 289 kts 256°
2026-04-28 12:51 49.28198 11.06041 7135 ft 288 kts 256°
2026-04-28 12:51 49.27716 11.03067 7135 ft 289 kts 256°
2026-04-28 12:51 49.27226 11.00071 7136 ft 289 kts 256°
2026-04-28 12:51 49.26732 10.97087 7249 ft 293 kts 256°
2026-04-28 12:52 49.26222 10.94005 7919 ft 305 kts 256°
2026-04-28 12:52 49.25703 10.90854 9287 ft 301 kts 257°
2026-04-28 12:52 49.25215 10.87818 10919 ft 290 kts 257°
2026-04-28 12:52 49.24721 10.84773 11901 ft 304 kts 257°
2026-04-28 12:53 49.24193 10.81554 12763 ft 318 kts 257°
2026-04-28 12:53 49.23644 10.78252 13935 ft 321 kts 257°
2026-04-28 12:53 49.23102 10.74972 15003 ft 326 kts 257°
2026-04-28 12:53 49.22549 10.71594 16033 ft 330 kts 257°
2026-04-28 12:54 49.21983 10.68145 16949 ft 338 kts 257°
2026-04-28 12:54 49.21404 10.64662 18048 ft 339 kts 257°
2026-04-28 12:54 49.20817 10.61170 18954 ft 344 kts 257°
2026-04-28 12:54 49.20213 10.57605 19794 ft 349 kts 257°
2026-04-28 12:55 49.19598 10.53997 20642 ft 353 kts 257°
2026-04-28 12:55 49.18974 10.50353 21530 ft 356 kts 257°
2026-04-28 12:55 49.18344 10.46679 22370 ft 359 kts 257°
2026-04-28 12:55 49.17709 10.42980 23190 ft 363 kts 257°
2026-04-28 12:56 49.17064 10.39237 23937 ft 366 kts 257°
2026-04-28 12:56 49.16414 10.35468 24632 ft 367 kts 257°
2026-04-28 12:56 49.15762 10.31696 25385 ft 367 kts 257°
2026-04-28 12:56 49.15069 10.27939 26090 ft 368 kts 254°
2026-04-28 12:57 49.14099 10.24312 26754 ft 371 kts 247°
2026-04-28 12:57 49.12771 10.20916 27417 ft 374 kts 240°
2026-04-28 12:57 49.11246 10.17692 28122 ft 375 kts 237°
2026-04-28 12:57 49.09647 10.14555 28788 ft 375 kts 236°
2026-04-28 12:58 49.08000 10.11445 29363 ft 377 kts 236°
2026-04-28 12:58 49.06327 10.08332 29786 ft 383 kts 236°
2026-04-28 12:58 49.04627 10.05170 30083 ft 387 kts 236°
2026-04-28 12:59 49.01264 9.98897 30123 ft 386 kts 236°
2026-04-28 12:59 48.97852 9.92500 30120 ft 386 kts 236°
2026-04-28 13:00 48.94472 9.86152 30116 ft 386 kts 236°
2026-04-28 13:00 48.91093 9.79818 30112 ft 386 kts 236°
2026-04-28 13:01 48.87710 9.73494 30087 ft 385 kts 237°
2026-04-28 13:01 48.84335 9.67204 30087 ft 384 kts 237°
2026-04-28 13:02 48.80964 9.60937 30077 ft 383 kts 236°
2026-04-28 13:02 48.77592 9.54681 30075 ft 383 kts 236°
2026-04-28 13:03 48.74216 9.48435 30070 ft 383 kts 236°
2026-04-28 13:03 48.70842 9.42204 30063 ft 383 kts 236°
2026-04-28 13:04 48.67466 9.35983 30074 ft 382 kts 236°
2026-04-28 13:04 48.63993 9.29907 30074 ft 385 kts 230°
2026-04-28 13:05 48.59575 9.25142 30076 ft 399 kts 213°
2026-04-28 13:05 48.54298 9.22238 30072 ft 406 kts 205°
2026-04-28 13:06 48.48894 9.19883 30060 ft 407 kts 204°
2026-04-28 13:06 48.43437 9.17580 30059 ft 407 kts 204°
2026-04-28 13:07 48.37994 9.15235 30057 ft 407 kts 204°
2026-04-28 13:07 48.32562 9.12864 30055 ft 406 kts 205°
2026-04-28 13:08 48.27132 9.10489 30048 ft 406 kts 204°
2026-04-28 13:08 48.22588 9.08504 30057 ft 406 kts 204°
2026-04-28 13:09 48.16286 9.05760 30055 ft 406 kts 204°
2026-04-28 13:09 48.10859 9.03404 30055 ft 406 kts 204°
2026-04-28 13:10 48.06347 9.01449 30052 ft 407 kts 205°
2026-04-28 13:10 48.00902 8.99093 30057 ft 408 kts 205°
2026-04-28 13:11 47.95448 8.96742 30060 ft 408 kts 204°
2026-04-28 13:11 47.89984 8.94392 30059 ft 409 kts 204°
2026-04-28 13:12 47.84519 8.92046 30059 ft 409 kts 205°
2026-04-28 13:12 47.79057 8.89702 30060 ft 408 kts 205°
2026-04-28 13:13 47.73653 8.87153 30058 ft 407 kts 207°
2026-04-28 13:13 47.68291 8.84467 30065 ft 407 kts 206°
2026-04-28 13:14 47.62947 8.81791 30066 ft 405 kts 207°
2026-04-28 13:14 47.57593 8.79141 30053 ft 406 kts 206°
2026-04-28 13:15 47.52237 8.76507 30048 ft 406 kts 206°
2026-04-28 13:15 47.46883 8.73884 30024 ft 406 kts 206°
2026-04-28 13:16 47.41509 8.71254 30047 ft 407 kts 206°
2026-04-28 13:16 47.36126 8.68627 30048 ft 408 kts 206°
2026-04-28 13:17 47.30737 8.66003 30044 ft 408 kts 206°
2026-04-28 13:17 47.25348 8.63384 30040 ft 408 kts 206°
2026-04-28 13:18 47.19953 8.60767 30050 ft 409 kts 206°
2026-04-28 13:18 47.14586 8.58169 30051 ft 409 kts 206°
2026-04-28 13:19 47.09180 8.55559 30055 ft 409 kts 206°
2026-04-28 13:19 47.03624 8.53535 30047 ft 423 kts 191°
2026-04-28 13:20 46.97706 8.53808 30054 ft 429 kts 183°
2026-04-28 13:20 46.91744 8.54660 30066 ft 431 kts 181°